period_start,C,m1,H,J0,J1,J2,J3,J4,J5,JA,JB,JC,JD,JJ,JK,JN,#
2014-05-20 00:03:16,0.06,0.76,0.00,23.93,27.43,29.79,9.57,40.92,1019.01,2039.00,3202.34,3100.39,3337.27,499.88,496.36,28.04,0000 0000 0000 0000 000000
2014-05-20 00:08:17,0.03,0.76,0.00,23.97,27.46,29.81,9.51,40.88,1018.87,2038.98,3201.45,3099.96,3336.76,500.00,496.21,28.08,0000 0000 0000 0000 000000
2014-05-20 00:13:19,0.06,0.76,0.00,24.02,27.49,29.85,9.59,40.89,1018.62,2038.98,3200.57,3099.18,3336.03,500.30,496.39,28.12,0000 0000 0000 0000 000000
2014-05-20 00:18:20,0.02,0.76,0.00,24.07,27.52,29.89,9.54,40.89,1018.58,2038.90,3199.93,3098.81,3335.36,499.83,495.81,28.16,0000 0000 0000 0000 000000
2014-05-20 00:23:21,-0.02,0.76,0.00,24.11,27.56,29.93,9.54,40.77,1018.58,2038.43,3199.19,3098.05,3334.72,499.94,495.74,28.20,0000 0000 0000 0000 000000
2014-05-20 00:28:22,0.02,0.76,0.00,24.16,27.59,29.95,9.57,40.82,1018.57,2038.05,3198.94,3097.62,3334.01,500.20,495.87,28.25,0000 0000 0000 0000 000000
2014-05-20 00:33:23,0.04,0.76,0.00,24.20,27.62,29.99,9.53,40.82,1018.57,2038.00,3198.30,3097.00,3333.21,500.17,495.85,28.29,0000 0000 0000 0000 000000
2014-05-20 00:38:25,0.06,0.77,0.00,24.25,27.66,30.03,9.57,40.71,1018.57,2037.99,3197.57,3096.26,3332.63,499.86,495.25,28.33,0000 0000 0000 0000 000000
2014-05-20 00:43:26,0.03,0.77,0.00,24.31,27.69,30.07,9.52,40.76,1018.57,2037.99,3196.45,3095.84,3332.00,500.12,495.64,28.37,0000 0000 0000 0000 000000
2014-05-20 00:48:27,0.05,0.77,0.00,24.35,27.73,30.11,9.54,40.78,1018.57,2037.96,3195.56,3095.07,3331.21,499.94,495.19,28.41,0000 0000 0000 0000 000000
2014-05-20 00:53:28,0.02,0.77,0.00,24.41,27.76,30.15,9.54,40.60,1018.57,2037.74,3194.78,3094.44,3330.60,500.00,495.35,28.45,0000 0000 0000 0000 000000
2014-05-20 00:58:29,-0.02,0.77,0.00,24.46,27.81,30.19,9.54,40.73,1018.57,2037.09,3193.85,3093.77,3329.73,500.10,495.34,28.50,0000 0000 0000 0000 000000
2014-05-20 01:03:30,0.04,0.77,0.00,24.51,27.84,30.23,9.53,40.77,1018.57,2037.02,3192.94,3093.04,3329.01,500.02,495.07,28.54,0000 0000 0000 0000 000000
2014-05-20 01:08:31,0.06,0.77,0.00,24.57,27.88,30.27,9.51,40.71,1018.57,2037.00,3192.14,3092.48,3328.24,500.31,495.56,28.58,0000 0000 0000 0000 000000
2014-05-20 01:13:32,0.04,0.78,0.00,24.61,27.92,30.31,9.58,40.58,1018.55,2037.00,3191.16,3091.89,3327.60,500.83,495.74,28.62,0000 0000 0000 0000 000000
2014-05-20 01:18:34,0.05,0.78,0.00,24.67,27.96,30.35,9.55,40.67,1018.40,2036.98,3190.29,3091.11,3327.00,499.82,494.63,28.66,0000 0000 0000 0000 000000
2014-05-20 01:23:35,0.05,0.78,0.00,24.72,28.00,30.39,9.47,40.70,1018.32,2036.95,3189.34,3090.58,3326.28,499.96,494.54,28.71,0000 0000 0000 0000 000000
2014-05-20 01:28:36,0.01,0.78,0.00,24.77,28.04,30.43,9.53,40.69,1018.23,2036.68,3188.23,3089.89,3325.51,499.96,494.41,28.75,0000 0000 0000 0000 000000
2014-05-20 01:33:37,-0.00,0.78,0.00,24.82,28.08,30.48,9.46,40.62,1018.23,2036.17,3187.35,3089.08,3324.78,499.32,493.78,28.79,0000 0000 0000 0000 000000
2014-05-20 01:38:38,0.04,0.78,0.00,24.86,28.12,30.52,9.48,40.77,1018.11,2036.02,3186.46,3088.38,3323.99,499.68,494.05,28.83,0000 0000 0000 0000 000000
2014-05-20 01:43:39,0.04,0.79,0.00,24.91,28.16,30.56,9.52,40.69,1018.13,2036.00,3185.77,3087.82,3323.13,499.98,494.22,28.87,0000 0000 0000 0000 000000
2014-05-20 01:48:40,0.06,0.79,0.00,24.95,28.20,30.60,9.49,40.72,1018.13,2035.99,3184.76,3087.04,3322.41,499.79,494.14,28.92,0000 0000 0000 0000 000000
2014-05-20 01:53:42,0.05,0.79,0.00,25.00,28.24,30.65,9.52,40.72,1018.10,2035.96,3183.81,3086.30,3321.72,499.82,493.83,28.96,0000 0000 0000 0000 000000
2014-05-20 01:58:44,-0.02,0.79,0.00,25.06,28.29,30.69,9.49,40.85,1018.10,2035.55,3182.97,3085.64,3320.95,500.07,494.11,29.00,0000 0000 0000 0000 000000
2014-05-20 02:03:45,0.01,0.79,0.00,25.13,28.33,30.74,9.47,40.76,1018.09,2035.08,3182.14,3085.00,3320.10,500.06,494.09,29.04,0000 0000 0000 0000 000000
2014-05-20 02:08:46,0.06,0.79,0.00,25.19,28.38,30.78,9.55,40.73,1018.08,2035.00,3181.13,3084.18,3319.34,500.45,494.20,29.08,0000 0000 0000 0000 000000
2014-05-20 02:13:47,0.05,0.80,0.00,25.25,28.43,30.83,9.43,40.70,1018.08,2035.00,3180.24,3083.57,3318.62,499.43,493.16,29.12,0000 0000 0000 0000 000000
2014-05-20 02:18:48,0.03,0.80,0.00,25.31,28.48,30.87,9.48,40.81,1018.08,2034.97,3179.58,3082.97,3317.90,499.93,493.44,29.17,0000 0000 0000 0000 000000
2014-05-20 02:23:49,0.00,0.80,0.00,25.35,28.52,30.92,9.52,40.80,1018.08,2034.61,3178.76,3082.13,3317.05,500.32,493.80,29.21,0000 0000 0000 0000 000000
2014-05-20 02:28:50,0.03,0.80,0.00,25.40,28.57,30.97,9.51,40.63,1018.01,2034.11,3177.60,3081.32,3316.17,500.49,493.88,29.25,0000 0000 0000 0000 000000
2014-05-20 02:33:52,0.03,0.80,0.00,25.45,28.62,31.02,9.50,40.63,1017.92,2034.01,3176.72,3080.83,3315.40,500.32,493.56,29.29,0000 0000 0000 0000 000000
2014-05-20 02:38:53,0.05,0.80,0.00,25.51,28.67,31.07,9.53,40.77,1017.98,2034.00,3175.89,3080.04,3314.72,500.25,493.40,29.33,0000 0000 0000 0000 000000
2014-05-20 02:43:54,0.05,0.81,0.00,25.56,28.72,31.12,9.49,40.66,1017.83,2033.97,3174.99,3079.33,3313.91,500.04,492.93,29.38,0000 0000 0000 0000 000000
2014-05-20 02:48:55,0.02,0.81,0.00,25.62,28.76,31.17,9.50,40.60,1017.97,2033.75,3174.08,3078.73,3313.06,500.01,493.14,29.42,0000 0000 0000 0000 000000
2014-05-20 02:53:56,-0.02,0.81,0.00,25.66,28.81,31.22,9.48,40.56,1018.07,2033.11,3173.22,3078.02,3312.23,500.27,493.12,29.46,0000 0000 0000 0000 000000
2014-05-20 02:58:57,0.05,0.81,0.00,25.71,28.86,31.26,9.46,40.71,1018.05,2033.01,3172.73,3077.26,3311.71,499.86,492.81,29.50,0000 0000 0000 0000 000000
2014-05-20 03:03:58,0.04,0.81,0.00,25.76,28.91,31.31,9.51,40.67,1017.82,2033.00,3171.76,3076.76,3310.93,500.12,492.58,29.54,0000 0000 0000 0000 000000
2014-05-20 03:09:00,0.05,0.81,0.00,25.80,28.96,31.36,9.47,40.59,1017.67,2032.95,3170.76,3076.00,3310.07,499.84,492.21,29.59,0000 0000 0000 0000 000000
2014-05-20 03:14:01,-0.01,0.81,0.00,25.85,29.00,31.41,9.46,40.43,1017.64,2032.49,3169.99,3075.20,3309.33,500.40,492.85,29.63,0000 0000 0000 0000 000000
2014-05-20 03:19:02,0.02,0.81,0.00,25.88,29.05,31.46,9.49,40.64,1017.61,2032.05,3169.07,3074.65,3308.61,500.24,492.59,29.67,0000 0000 0000 0000 000000
2014-05-20 03:24:03,0.03,0.81,0.00,25.92,29.10,31.50,9.40,40.38,1017.62,2032.00,3168.22,3073.98,3307.95,499.94,492.33,29.71,0000 0000 0000 0000 000000
2014-05-20 03:29:04,0.06,0.82,0.00,25.96,29.14,31.55,9.49,40.48,1017.61,2032.00,3167.33,3073.26,3307.15,500.27,492.49,29.75,0000 0000 0000 0000 000000
2014-05-20 03:34:05,0.04,0.82,0.00,26.01,29.19,31.60,9.49,40.52,1017.62,2032.00,3166.46,3072.84,3306.59,499.94,492.20,29.80,0000 0000 0000 0000 000000
2014-05-20 03:39:06,0.03,0.82,0.00,26.05,29.23,31.64,9.46,40.55,1017.62,2031.96,3165.72,3072.07,3305.90,499.75,491.80,29.84,0000 0000 0000 0000 000000
2014-05-20 03:44:07,-0.01,0.82,0.00,26.10,29.28,31.69,9.45,40.51,1017.65,2031.55,3164.93,3071.40,3305.08,499.94,492.10,29.88,0000 0000 0000 0000 000000
2014-05-20 03:49:09,0.00,0.82,0.00,26.14,29.32,31.73,9.44,40.36,1017.64,2031.09,3164.07,3070.98,3304.47,499.81,491.82,29.92,0000 0000 0000 0000 000000
2014-05-20 03:54:10,0.05,0.82,0.00,26.19,29.37,31.78,9.41,40.20,1017.60,2031.00,3163.21,3070.19,3303.73,499.64,491.59,29.96,0000 0000 0000 0000 000000
2014-05-20 03:59:11,0.04,0.82,0.00,26.22,29.41,31.83,9.43,40.16,1017.59,2030.98,3162.39,3069.67,3302.94,500.12,491.87,30.00,0000 0000 0000 0000 000000
2014-05-20 04:04:12,0.02,0.83,0.00,26.27,29.46,31.87,9.50,40.37,1017.59,2030.82,3161.51,3068.98,3302.12,500.44,492.18,30.05,0000 0000 0000 0000 000000
2014-05-20 04:09:13,-0.01,0.83,0.00,26.31,29.51,31.91,9.43,40.19,1017.59,2030.37,3160.80,3068.26,3301.55,499.99,491.44,30.09,0000 0000 0000 0000 000000
2014-05-20 04:14:14,0.02,0.83,0.00,26.36,29.55,31.96,9.45,40.21,1017.58,2030.05,3159.95,3067.73,3300.86,499.79,491.34,30.13,0000 0000 0000 0000 000000
2014-05-20 04:19:15,0.04,0.83,0.00,26.41,29.60,32.00,9.46,40.27,1017.58,2030.00,3159.14,3067.03,3300.06,500.38,491.79,30.17,0000 0000 0000 0000 000000
2014-05-20 04:24:16,0.06,0.83,0.00,26.46,29.64,32.05,9.45,40.44,1017.58,2029.99,3158.31,3066.39,3299.44,500.23,491.62,30.21,0000 0000 0000 0000 000000
2014-05-20 04:29:17,0.01,0.83,0.00,26.50,29.69,32.09,9.47,40.29,1017.54,2029.92,3157.79,3065.97,3298.92,500.17,491.51,30.26,0000 0000 0000 0000 000000
2014-05-20 04:34:18,0.01,0.83,0.00,26.55,29.74,32.14,9.43,40.25,1017.38,2029.65,3156.99,3065.21,3298.10,499.84,491.00,30.30,0000 0000 0000 0000 000000
2014-05-20 04:39:19,-0.00,0.83,0.00,26.59,29.78,32.18,9.41,40.11,1017.29,2029.07,3156.24,3064.78,3297.47,499.78,490.91,30.34,0000 0000 0000 0000 000000
2014-05-20 04:44:21,0.04,0.83,0.00,26.61,29.82,32.23,9.40,40.20,1017.32,2029.00,3155.66,3064.04,3296.92,500.10,491.24,30.38,0000 0000 0000 0000 000000
2014-05-20 04:49:22,0.05,0.83,0.00,26.64,29.87,32.27,9.49,40.29,1017.28,2028.99,3154.92,3063.49,3296.08,500.31,491.23,30.42,0000 0000 0000 0000 000000
2014-05-20 04:54:23,0.04,0.84,0.00,26.68,29.91,32.31,9.44,40.15,1017.21,2028.96,3154.08,3062.95,3295.58,500.24,491.10,30.47,0000 0000 0000 0000 000000
2014-05-20 04:59:24,0.01,0.84,0.00,26.74,29.96,32.36,9.46,40.17,1017.17,2028.66,3153.25,3062.17,3294.85,500.13,490.92,30.51,0000 0000 0000 0000 000000
2014-05-20 05:04:26,-0.01,0.84,0.00,26.77,30.01,32.40,9.46,40.34,1017.15,2028.15,3152.51,3061.70,3294.07,500.14,490.90,30.55,0000 0000 0000 0000 000000
2014-05-20 05:09:27,0.03,0.84,0.00,26.77,30.05,32.45,9.40,40.45,1017.15,2028.01,3151.82,3061.02,3293.30,499.77,490.58,30.59,0000 0000 0000 0000 000000
2014-05-20 05:14:28,0.05,0.84,0.00,26.80,30.10,32.49,9.39,40.40,1017.23,2028.00,3151.03,3060.35,3292.64,499.98,490.61,30.63,0000 0000 0000 0000 000000
2014-05-20 05:19:29,0.03,0.84,0.00,26.85,30.14,32.54,9.49,40.38,1017.16,2027.99,3150.10,3059.85,3291.99,500.21,490.84,30.67,0000 0000 0000 0000 000000
2014-05-20 05:24:30,0.03,0.84,0.00,26.88,30.19,32.58,9.46,40.38,1017.17,2027.80,3149.24,3059.08,3291.24,499.99,490.64,30.72,0000 0000 0000 0000 000000
2014-05-20 05:29:31,-0.01,0.84,0.00,26.88,30.23,32.62,9.54,40.51,1017.12,2027.20,3148.62,3058.41,3290.51,500.40,490.95,30.76,0000 0000 0000 0000 000000
2014-05-20 05:34:32,0.01,0.84,0.00,26.92,30.27,32.66,9.44,40.33,1017.13,2027.01,3147.89,3057.90,3289.88,500.23,490.67,30.80,0000 0000 0000 0000 000000
2014-05-20 05:39:33,0.05,0.85,0.00,26.97,30.31,32.71,9.43,40.27,1017.12,2027.00,3147.09,3057.11,3289.08,500.03,490.42,30.84,0000 0000 0000 0000 000000
2014-05-20 05:44:34,0.04,0.85,0.00,27.01,30.36,32.74,9.44,40.25,1017.11,2026.91,3146.27,3056.49,3288.30,499.94,490.30,30.88,0000 0000 0000 0000 000000
2014-05-20 05:49:35,-0.04,0.85,0.00,27.03,30.40,32.78,9.44,40.31,1017.11,2026.41,3145.71,3056.00,3287.79,499.93,490.19,30.93,0000 0000 0000 0000 000000
2014-05-20 05:54:36,0.04,0.85,0.00,27.06,30.44,32.82,9.37,40.23,1017.11,2026.10,3144.63,3055.26,3287.02,499.48,489.71,30.97,0000 0000 0000 0000 000000
2014-05-20 05:59:37,0.04,0.85,0.00,27.10,30.48,32.86,9.40,40.23,1017.11,2026.00,3143.69,3054.69,3286.21,499.98,490.09,31.01,0000 0000 0000 0000 000000
2014-05-20 06:04:39,0.05,0.85,0.00,27.13,30.52,32.90,9.43,40.08,1017.10,2026.00,3142.73,3054.01,3285.59,500.18,490.17,31.05,0000 0000 0000 0000 000000
2014-05-20 06:09:40,0.04,0.86,0.00,27.14,30.56,32.94,9.40,40.12,1017.10,2026.00,3141.83,3053.32,3284.98,499.87,489.99,31.09,0000 0000 0000 0000 000000
2014-05-20 06:14:41,0.03,0.86,0.00,27.17,30.59,32.98,9.40,40.08,1017.10,2025.97,3140.99,3052.88,3284.22,499.90,489.96,31.14,0000 0000 0000 0000 000000
2014-05-20 06:19:42,0.03,0.86,0.00,27.21,30.63,33.02,9.48,40.07,1017.10,2025.80,3140.18,3052.07,3283.61,500.46,490.43,31.18,0000 0000 0000 0000 000000
2014-05-20 06:24:43,-0.00,0.86,0.00,27.22,30.67,33.04,9.42,40.09,1017.09,2025.33,3139.52,3051.62,3282.96,499.73,489.64,31.22,0000 0000 0000 0000 000000
2014-05-20 06:29:44,0.02,0.86,0.00,27.24,30.71,33.08,9.48,40.25,1017.09,2025.05,3138.63,3050.99,3282.13,500.16,490.03,31.26,0000 0000 0000 0000 000000
2014-05-20 06:34:45,0.06,0.86,0.00,27.29,30.74,33.11,9.38,40.15,1017.06,2025.00,3137.77,3050.20,3281.49,499.98,489.70,31.30,0000 0000 0000 0000 000000
2014-05-20 06:39:46,0.03,0.86,0.00,27.31,30.78,33.15,9.47,40.33,1017.03,2025.00,3136.97,3049.79,3280.89,500.18,489.99,31.34,0000 0000 0000 0000 000000
2014-05-20 06:44:47,0.05,0.87,0.00,27.31,30.81,33.19,9.42,40.07,1016.98,2024.96,3136.08,3049.03,3280.06,500.14,489.81,31.39,0000 0000 0000 0000 000000
2014-05-20 06:49:49,0.03,0.87,0.00,27.34,30.85,33.22,9.46,40.22,1016.94,2024.71,3135.26,3048.25,3279.27,499.82,489.55,31.43,0000 0000 0000 0000 000000
2014-05-20 06:54:50,-0.03,0.87,0.00,27.37,30.89,33.25,9.41,40.06,1016.71,2024.21,3134.90,3047.90,3278.72,499.89,489.37,31.47,0000 0000 0000 0000 000000
2014-05-20 06:59:51,0.04,0.87,0.00,27.39,30.92,33.29,9.39,40.02,1016.66,2024.02,3134.08,3047.11,3277.99,499.92,489.47,31.51,0000 0000 0000 0000 000000
2014-05-20 07:04:52,0.06,0.87,0.00,27.42,30.95,33.32,9.41,40.07,1016.78,2024.00,3133.20,3046.48,3277.18,500.33,489.76,31.55,0000 0000 0000 0000 000000
2014-05-20 07:09:54,0.04,0.87,0.00,27.45,30.99,33.35,9.42,40.14,1016.84,2024.00,3132.26,3045.95,3276.61,500.14,489.51,31.60,0000 0000 0000 0000 000000
2014-05-20 07:14:55,0.05,0.87,0.00,27.47,31.01,33.38,9.40,40.18,1016.71,2023.99,3131.45,3045.15,3275.95,500.25,489.50,31.64,0000 0000 0000 0000 000000
2014-05-20 07:19:56,0.04,0.87,0.00,27.48,31.05,33.41,9.40,40.24,1016.67,2023.92,3130.64,3044.73,3275.15,499.83,489.26,31.68,0000 0000 0000 0000 000000
2014-05-20 07:24:57,-0.02,0.88,0.00,27.52,31.08,33.43,9.40,40.06,1016.65,2023.49,3129.94,3044.03,3274.45,499.91,489.24,31.72,0000 0000 0000 0000 000000
2014-05-20 07:29:58,0.02,0.88,0.00,27.53,31.11,33.46,9.45,40.17,1016.63,2023.23,3129.13,3043.53,3273.94,500.13,489.38,31.76,0000 0000 0000 0000 000000
2014-05-20 07:34:59,0.04,0.88,0.00,27.57,31.14,33.49,9.41,40.29,1016.62,2023.06,3128.18,3042.97,3273.13,500.11,489.10,31.81,0000 0000 0000 0000 000000
2014-05-20 07:40:01,0.05,0.88,0.00,27.61,31.17,33.51,9.38,40.09,1016.62,2023.01,3127.50,3042.22,3272.56,499.65,488.80,31.85,0000 0000 0000 0000 000000
2014-05-20 07:45:02,0.04,0.88,0.00,27.63,31.20,33.54,9.40,40.07,1016.62,2023.00,3126.59,3041.76,3271.96,499.71,488.79,31.89,0000 0000 0000 0000 000000
2014-05-20 07:50:02,0.04,0.88,0.00,27.67,31.23,33.57,9.40,40.14,1016.62,2023.00,3125.90,3041.04,3271.16,499.78,488.83,31.93,0000 0000 0000 0000 000000
2014-05-20 07:55:04,0.06,0.88,0.00,27.70,31.26,33.60,9.37,40.05,1016.62,2022.97,3124.94,3040.42,3270.56,499.78,488.55,31.97,0000 0000 0000 0000 000000
2014-05-20 08:00:04,0.01,0.89,0.00,27.72,31.29,33.62,9.36,40.04,1016.62,2022.83,3124.04,3039.94,3269.80,499.90,489.11,32.01,0000 0000 0000 0000 000000
2014-05-20 08:05:05,0.03,0.89,0.00,27.76,31.32,33.65,9.38,39.96,1016.62,2022.55,3123.16,3039.14,3269.03,500.05,488.89,32.06,0000 0000 0000 0000 000000
2014-05-20 08:10:06,0.03,0.89,0.00,27.80,31.35,33.68,9.39,39.94,1016.62,2022.19,3122.27,3038.50,3268.36,500.16,488.92,32.10,0000 0000 0000 0000 000000
2014-05-20 08:15:08,0.02,0.89,0.00,27.80,31.37,33.71,9.40,40.08,1016.61,2022.02,3121.57,3037.92,3267.69,499.74,488.58,32.14,0000 0000 0000 0000 000000
2014-05-20 08:20:09,0.04,0.89,0.00,27.83,31.41,33.73,9.37,40.01,1016.53,2022.00,3120.96,3037.14,3266.98,499.48,488.18,32.18,0000 0000 0000 0000 000000
2014-05-20 08:25:10,0.05,0.89,0.00,27.86,31.43,33.76,9.48,40.14,1016.46,2022.00,3120.09,3036.73,3266.27,500.20,488.77,32.22,0000 0000 0000 0000 000000
2014-05-20 08:30:11,0.05,0.90,0.00,27.87,31.46,33.79,9.40,40.00,1016.46,2021.97,3119.24,3036.02,3265.54,500.01,488.66,32.26,0000 0000 0000 0000 000000
2014-05-20 08:35:12,0.03,0.90,0.00,27.91,31.50,33.82,9.38,40.11,1016.33,2021.83,3118.42,3035.34,3264.87,499.87,488.34,32.31,0000 0000 0000 0000 000000
2014-05-20 08:40:14,-0.02,0.90,0.00,27.95,31.53,33.84,9.38,40.02,1016.19,2021.23,3117.68,3034.79,3264.06,499.57,487.98,32.35,0000 0000 0000 0000 000000
2014-05-20 08:45:14,0.04,0.90,0.00,27.97,31.56,33.88,9.37,39.98,1016.19,2021.05,3116.76,3034.03,3263.32,500.17,488.35,32.39,0000 0000 0000 0000 000000
2014-05-20 08:50:15,0.04,0.90,0.00,28.01,31.60,33.90,9.40,40.12,1016.15,2021.01,3115.81,3033.33,3262.89,500.16,488.25,32.43,0000 0000 0000 0000 000000
2014-05-20 08:55:16,0.05,0.90,0.00,28.03,31.63,33.94,9.37,40.03,1016.13,2021.00,3114.89,3032.76,3262.09,499.69,487.78,32.47,0000 0000 0000 0000 000000
2014-05-20 09:00:17,0.05,0.90,0.00,28.04,31.66,33.97,9.40,40.05,1016.13,2020.98,3113.99,3032.02,3261.27,500.21,488.35,32.51,0000 0000 0000 0000 000000
2014-05-20 09:05:19,0.05,0.91,0.00,28.08,31.70,34.00,9.41,40.18,1016.13,2020.92,3113.15,3031.43,3260.64,500.12,488.36,32.56,0000 0000 0000 0000 000000
2014-05-20 09:10:20,0.01,0.91,0.00,28.10,31.73,34.03,9.39,40.13,1016.13,2020.70,3112.31,3030.81,3259.88,499.98,488.05,32.60,0000 0000 0000 0000 000000
2014-05-20 09:15:21,0.01,0.91,0.00,28.11,31.76,34.06,9.37,39.95,1016.12,2020.21,3111.37,3030.04,3259.06,500.00,488.09,32.64,0000 0000 0000 0000 000000
2014-05-20 09:20:22,0.06,0.91,0.00,28.14,31.79,34.09,9.38,39.97,1016.08,2020.03,3110.38,3029.35,3258.27,500.15,488.04,32.68,0000 0000 0000 0000 000000
2014-05-20 09:25:23,0.05,0.91,0.00,28.17,31.82,34.12,9.36,40.08,1016.02,2020.00,3109.39,3028.71,3257.57,500.13,488.00,32.72,0000 0000 0000 0000 000000
2014-05-20 09:30:25,0.05,0.91,0.00,28.18,31.85,34.14,9.38,40.02,1016.03,2020.00,3108.43,3027.97,3256.75,500.12,487.89,32.76,0000 0000 0000 0000 000000
2014-05-20 09:35:26,0.06,0.92,0.00,28.22,31.88,34.18,9.33,40.09,1015.96,2019.99,3107.37,3027.11,3256.00,499.75,487.55,32.80,0000 0000 0000 0000 000000
2014-05-20 09:40:27,0.05,0.92,0.00,28.25,31.91,34.21,9.47,40.23,1015.81,2019.95,3106.60,3026.70,3255.28,500.41,487.95,32.85,0000 0000 0000 0000 000000
2014-05-20 09:45:28,0.03,0.92,0.00,28.26,31.94,34.24,9.31,39.87,1015.69,2019.82,3105.54,3026.00,3254.50,499.65,487.35,32.89,0000 0000 0000 0000 000000
2014-05-20 09:50:29,0.00,0.92,0.00,28.30,31.97,34.26,9.39,40.13,1015.67,2019.37,3104.58,3025.24,3253.77,500.33,487.87,32.93,0000 0000 0000 0000 000000
2014-05-20 09:55:30,0.04,0.92,0.00,28.32,32.00,34.29,9.39,39.91,1015.68,2019.05,3103.52,3024.52,3252.99,500.19,487.72,32.97,0000 0000 0000 0000 000000
2014-05-20 10:00:31,0.04,0.92,0.00,28.34,32.02,34.32,9.33,40.02,1015.66,2019.01,3102.58,3023.96,3252.16,499.74,487.24,33.01,0000 0000 0000 0000 000000
2014-05-20 10:05:33,0.05,0.93,0.00,28.38,32.05,34.35,9.35,39.98,1015.65,2019.00,3101.80,3023.23,3251.55,500.06,487.64,33.05,0000 0000 0000 0000 000000
2014-05-20 10:10:34,0.06,0.93,0.00,28.39,32.08,34.37,9.32,39.81,1015.65,2019.00,3100.76,3022.51,3250.71,499.96,487.27,33.10,0000 0000 0000 0000 000000
2014-05-20 10:15:35,0.03,0.93,0.00,28.41,32.11,34.40,9.38,39.98,1015.65,2018.97,3099.84,3021.90,3249.97,499.99,487.30,33.14,0000 0000 0000 0000 000000
2014-05-20 10:20:37,0.05,0.93,0.00,28.44,32.13,34.42,9.34,40.08,1015.64,2018.88,3098.84,3021.10,3249.16,499.96,487.15,33.18,0000 0000 0000 0000 000000
2014-05-20 10:25:38,0.02,0.93,0.00,28.45,32.15,34.45,9.41,39.88,1015.64,2018.65,3098.01,3020.61,3248.48,500.27,487.47,33.22,0000 0000 0000 0000 000000
2014-05-20 10:30:39,0.00,0.94,0.00,28.49,32.18,34.48,9.37,39.82,1015.63,2018.36,3097.14,3020.01,3247.90,499.98,487.22,33.26,0000 0000 0000 0000 000000
2014-05-20 10:35:40,0.04,0.94,0.00,28.53,32.20,34.51,9.44,39.96,1015.62,2018.09,3096.18,3019.25,3247.10,500.27,487.26,33.30,0000 0000 0000 0000 000000
2014-05-20 10:40:41,0.05,0.94,0.00,28.54,32.23,34.53,9.35,39.94,1015.61,2018.01,3095.22,3018.67,3246.28,500.12,487.26,33.35,0000 0000 0000 0000 000000
2014-05-20 10:45:43,0.04,0.94,0.00,28.58,32.25,34.56,9.29,39.88,1015.62,2018.00,3094.34,3018.02,3245.71,499.60,486.78,33.39,0000 0000 0000 0000 000000
2014-05-20 10:50:44,0.06,0.94,0.00,28.61,32.28,34.59,9.35,39.80,1015.63,2017.99,3093.45,3017.30,3244.85,499.91,487.02,33.43,0000 0000 0000 0000 000000
2014-05-20 10:55:45,0.04,0.94,0.00,28.63,32.31,34.62,9.37,39.80,1015.64,2017.99,3092.57,3016.78,3244.06,500.28,487.18,33.47,0000 0000 0000 0000 000000
2014-05-20 11:00:46,0.05,0.95,0.00,28.68,32.34,34.65,9.39,39.92,1015.62,2017.98,3091.67,3016.06,3243.45,500.22,487.11,33.51,0000 0000 0000 0000 000000
2014-05-20 11:05:47,0.05,0.95,0.00,28.72,32.36,34.68,9.41,39.88,1015.59,2017.97,3090.61,3015.48,3242.80,499.95,486.76,33.55,0000 0000 0000 0000 000000
2014-05-20 11:10:48,0.01,0.95,0.00,28.72,32.39,34.71,9.37,39.83,1015.56,2017.76,3089.90,3014.89,3242.01,499.72,486.43,33.59,0000 0000 0000 0000 000000
2014-05-20 11:15:49,0.04,0.95,0.00,28.75,32.42,34.73,9.35,39.84,1015.63,2017.49,3088.83,3014.09,3241.19,499.70,486.43,33.64,0000 0000 0000 0000 000000
2014-05-20 11:20:51,0.02,0.95,0.00,28.73,32.45,34.76,9.44,39.83,1015.62,2017.13,3087.96,3013.32,3240.46,500.20,486.99,33.68,0000 0000 0000 0000 000000
2014-05-20 11:25:52,0.03,0.95,0.00,28.72,32.47,34.79,9.46,40.07,1015.40,2017.02,3087.07,3012.85,3239.80,500.27,486.95,33.72,0000 0000 0000 0000 000000
2014-05-20 11:30:53,0.05,0.96,0.00,28.73,32.50,34.82,9.30,39.92,1015.21,2017.00,3086.19,3012.07,3239.03,499.85,486.46,33.76,0000 0000 0000 0000 000000
2014-05-20 11:35:54,0.06,0.96,0.00,28.71,32.52,34.85,9.39,39.97,1015.17,2017.00,3085.16,3011.46,3238.30,500.14,486.79,33.80,0000 0000 0000 0000 000000
2014-05-20 11:40:56,0.04,0.96,0.00,28.72,32.54,34.87,9.39,40.02,1015.19,2016.99,3084.31,3010.93,3237.53,500.18,486.86,33.84,0000 0000 0000 0000 000000
2014-05-20 11:45:57,0.05,0.96,0.00,28.72,32.56,34.88,9.38,39.77,1015.18,2016.96,3083.50,3010.14,3236.88,499.93,486.59,33.89,0000 0000 0000 0000 000000
2014-05-20 11:50:58,0.02,0.96,0.00,28.70,32.58,34.90,9.37,39.88,1015.16,2016.65,3082.57,3009.47,3236.06,500.04,486.70,33.93,0000 0000 0000 0000 000000
2014-05-20 11:55:59,0.06,0.97,0.00,28.71,32.60,34.93,9.37,40.02,1015.16,2016.69,3081.21,3008.96,3235.37,499.86,486.48,33.97,0000 0000 0000 0000 000000
2014-05-20 12:01:00,0.03,0.97,0.00,28.72,32.62,34.95,9.38,39.99,1015.15,2016.39,3080.44,3008.16,3234.78,499.79,486.17,34.01,0000 0000 0000 0000 000000
2014-05-20 12:06:02,0.01,0.97,0.00,28.70,32.63,34.95,9.36,39.96,1015.15,2016.17,3079.53,3007.91,3234.04,499.84,486.55,34.05,0000 0000 0000 0000 000000
2014-05-20 12:11:03,0.05,0.97,0.00,28.72,32.65,34.97,9.33,39.90,1015.15,2016.10,3078.76,3007.14,3233.36,499.90,486.47,34.09,0000 0000 0000 0000 000000
2014-05-20 12:16:05,0.03,0.97,0.00,28.74,32.66,34.98,9.38,39.83,1015.14,2016.02,3077.86,3006.75,3232.78,499.85,486.44,34.14,0000 0000 0000 0000 000000
2014-05-20 12:21:06,0.04,0.97,0.00,28.72,32.67,35.00,9.37,39.89,1015.15,2016.01,3076.97,3006.03,3232.03,500.11,486.78,34.18,0000 0000 0000 0000 000000
2014-05-20 12:26:06,0.06,0.98,0.00,28.73,32.69,35.01,9.34,39.83,1015.15,2016.01,3076.06,3005.47,3231.29,499.90,486.51,34.22,0000 0000 0000 0000 000000
2014-05-20 12:31:08,0.03,0.98,0.00,28.73,32.70,35.03,9.40,39.95,1015.15,2016.00,3075.16,3004.98,3230.76,500.28,486.73,34.26,0000 0000 0000 0000 000000
2014-05-20 12:36:09,0.06,0.98,0.00,28.70,32.71,35.03,9.34,39.97,1015.12,2016.00,3074.22,3004.18,3230.01,500.11,486.83,34.30,0000 0000 0000 0000 000000
2014-05-20 12:41:10,0.05,0.98,0.00,28.72,32.72,35.05,9.41,39.98,1015.13,2016.00,3073.24,3003.80,3229.24,500.43,486.99,34.34,0000 0000 0000 0000 000000
2014-05-20 12:46:11,0.04,0.99,0.00,28.72,32.73,35.06,9.41,39.99,1015.11,2016.00,3072.50,3003.08,3228.82,500.18,486.74,34.38,0000 0000 0000 0000 000000
2014-05-20 12:51:12,0.05,0.99,0.00,28.70,32.74,35.06,9.31,39.88,1015.12,2016.00,3071.62,3002.69,3228.06,499.79,486.32,34.43,0000 0000 0000 0000 000000
2014-05-20 12:56:13,0.03,0.99,0.00,28.72,32.75,35.07,9.39,39.91,1015.12,2016.00,3070.99,3002.02,3227.62,500.31,487.12,34.47,0000 0000 0000 0000 000000
2014-05-20 13:01:14,0.05,0.99,0.00,28.69,32.75,35.09,9.38,39.91,1015.14,2015.99,3070.18,3001.53,3226.92,499.84,486.51,34.51,0000 0000 0000 0000 000000